CAPE
1775 1774 2552 2454 2111 2604 2882 2490 2056 1712 2200 2466 2529 2934 2974 2644 2432 2463 2445 2042 1764 1868 1898 1728 1750 1799 1754 1577 1789 2055 1864 1826 1836 1596 1502 1334 1237 1946 3990 3745 3583 3615 3468 3188 2685 1805 1577 1811 1451 1357 1459 1378 1270 1292 1522 1683 2045 1979 1822 1940 1991 1983 1826 1744 1829 1816 1935 1962 1876 1806 1604 1613 1646 1626 1560 1494 1440 1432 1393 1495 1556 1584 1721 1852 1732
1686 1627 2506 3147 3230 2826 1916 2134 2205 2440 1878 2598 2916 2864 2630 2560 2160 1548 1153 1824 2148 2080 1987 1790 1670 1658 1705 1482 1641 1864 2096 2271 2346 2252 2117 1714 1565 1488 4150 3929 3850 3832 3760 3716 3290 2452 1788 1632 1715 1448 1434 1500 1384 1305 1406 1555 1866 2090 1997 1933 1930 2052 2077 1961 1916 1928 2045 2144 2287 2153 2075 1939 1748 1712 1751 1701 1558 1465 1526 1564 1595 1484 1696 1906 2000
2150 2461 2720 3110 2367 2294 1715 1274 1413 1625 1187 1358 1651 1787 2233 1796 2163 1711 1979 1372 1364 1306 1960 2028 2180 1925 1823 1816 1788 2006 2177 2289 2373 2166 2054 2028 1754 1886 2310 3878 3920 3953 4054 4008 3595 3018 2452 1911 1739 1593 1503 1536 1542 1474 1498 1594 1886 2022 2028 1938 1724 1780 1995 2186 2104 2191 2274 2209 2160 2168 2312 2136 2075 2034 1996 1939 1908 1806 1769 1739 1760 1755 1898 1892 2047
2606 2470 2346 2199 1858 2012 1110 1370 1373 1734 1398 1891 1890 1867 1758 1364 1511 2264 1768 2653 2700 2268 2054 1928 2076 1980 2032 1931 1960 1972 2008 2141 2103 1950 1984 2149 2356 2558 2644 3049 3998 4081 4140 4199 4005 3555 3193 2694 2075 1856 1728 1585 1601 1613 1626 1670 1758 2056 2290 2211 2077 1751 1912 2070 2209 2334 2346 2284 2209 2281 2232 2212 2243 2207 2206 2183 2104 2086 2141 2128 2106 2110 2161 2190 2235
3292 2872 2529 2144 1623 1153 1363 1140 1260 1374 1020 864 775 950 1021 912 1562 1973 2234 1938 2034 2227 2334 1976 1796 1988 2042 2028 1869 1965 2035 2188 2216 1845 1761 1937 2252 2190 2110 2146 2845 4405 4147 4217 4046 3949 3527 3388 2906 2276 1934 1829 1652 1718 1743 1729 1820 2160 2417 2604 2489 2550 2350 2234 2184 2258 2288 2608 2705 2474 2390 2332 2282 2262 2264 2280 2381 2349 2376 2295 2398 2346 2345 2274 2436
2718 2608 2435 1748 1374 1209 1196 1100 1069 1111 1086 1085 824 594 792 788 1097 926 1260 1769 1881 2121 2128 2264 2386 2252 1890 1984 1892 1910 1872 2003 2110 1770 1586 1846 2051 2300 2199 2054 1826 2318 3642 4148 3965 3973 3891 3644 3372 2860 2534 2214 2025 1848 1828 1923 1982 2018 2104 2516 2840 2979 2740 2479 2280 2400 2653 2794 2846 2838 2668 2534 2456 2446 2470 2440 2473 2528 2482 2470 2448 2419 2472 2506 2635
2259 2292 1922 1847 1542 1264 956 736 659 693 784 868 664 434 419 520 587 703 1111 1512 1742 1716 1981 2128 2132 1819 1328 1534 1567 1891 1917 1745 1779 1944 1761 1843 2018 2061 2051 1965 1880 1793 1937 2887 4349 3853 3983 3952 3659 3281 3072 3004 2547 2247 1954 1966 2051 2034 1916 2320 2936 2998 3229 3140 3084 2940 2875 2960 3003 2976 2996 2858 2790 2704 2601 2542 2558 2683 2731 2755 2796 2739 2707 2716 2762
2150 1856 1663 1494 1278 1142 1006 725 536 471 650 714 652 888 743 435 558 539 688 796 1009 1447 1488 1878 1763 1838 2410 1606 1289 1440 1924 1917 1810 1924 1770 1794 1889 1988 1974 1976 1987 1894 2003 2080 2395 3468 3655 3904 3929 3598 3455 3337 3161 2773 2448 2260 2299 2307 2047 1962 2585 2868 3190 3281 3287 3216 3102 3096 3112 3095 3054 3060 3052 2890 2830 2716 2644 2731 2807 2882 2903 2956 2948 2921 2916
2295 2212 2105 1666 1441 1459 1366 1145 1012 693 604 818 470 340 587 214 354 410 453 578 800 680 833 1374 1606 1710 1668 1915 2162 1570 1473 1952 1976 1829 1948 1930 1887 1930 1994 2071 1974 1944 2107 2018 2276 2446 3706 3598 3821 3686 3568 3653 3592 3426 3041 2841 2617 2487 2346 2082 2075 2636 3036 3140 3208 3248 3222 3214 3175 3148 3076 3038 3030 3012 2872 2868 2880 2827 2883 2893 2957 3043 3112 3079 3022
2257 2463 2433 2229 1732 1631 1842 1888 1415 748 238 486 487 590 630 426 374 388 576 887 845 832 1040 1132 1274 1542 1464 1556 1734 1486 1662 1700 1664 2092 2071 2067 2126 2106 2032 1999 1980 1874 1732 1924 1893 2030 2750 3697 3784 3832 3722 3675 3600 3556 3393 3223 2916 2582 2395 2342 2306 2361 2816 3026 3100 3188 3259 3280 3269 3177 3070 2957 2897 2871 2851 2900 2978 2958 2936 2926 2889 2916 3026 3115 3074
2163 2390 2042 1832 1866 1840 1822 1576 1474 1137 466 235 112 433 378 320 282 517 718 826 818 1078 1318 1258 1085 1494 1410 1448 1471 1428 1218 1884 1834 2020 2128 1959 1806 1895 1861 1922 1920 1954 2056 2086 2019 2215 2452 3084 2719 3243 3446 3578 3642 3540 3481 3435 3249 2852 2508 2322 2343 2386 2476 2954 3118 3108 3170 3192 3168 3165 3094 2989 2858 2815 2805 2750 2767 2735 2733 2830 2890 2890 2919 2792 2780
1046 1244 1765 1585 1373 1242 1061 994 888 853 612 69 6 33 76 58 76 216 551 854 732 642 775 903 1084 1179 1313 1478 1412 1549 1758 1844 1490 1688 1839 2096 2004 1872 1710 1756 1739 1768 1798 1955 1828 2000 2200 2699 3102 2856 2647 3350 3410 3501 3564 3432 3347 3254 2842 2581 2336 2326 2297 2689 3151 3157 3175 3210 3168 3076 2984 2953 2896 2798 2738 2711 2636 2582 2578 2584 2632 2706 2795 2780 2698
1602 1574 986 1310 1219 1010 958 744 398 165 1 8 16 56 221 249 265 282 162 350 495 667 810 1004 1058 852 1064 1226 1381 1534 1661 1818 1801 1783 1804 2024 2007 1967 1972 1812 1689 1682 1900 1842 1971 1748 1729 2302 2860 3002 2899 2996 3837 3316 3424 3333 3288 3205 3195 2995 2848 2687 2532 2650 3056 3008 2971 3008 3120 2961 2640 2657 2805 2811 2729 2635 2541 2500 2436 2393 2353 2424 2501 2537 2528
2519 2111 1621 1256 1218 1074 887 730 485 191 66 52 33 51 70 84 136 188 229 269 395 692 817 811 820 763 1156 1374 1417 1509 1746 1773 1823 1862 1974 1809 1894 1944 1992 1818 1559 1458 1601 1808 1820 1736 1662 1728 2206 2450 2714 2756 2827 3504 3430 3268 3284 3167 3222 3182 3204 3104 3016 2949 3084 3124 3016 2986 3034 2952 2809 2582 2535 2682 2736 2666 2553 2437 2332 2268 2251 2246 2270 2338 2359
2653 2534 2198 1941 1616 1336 1335 1114 962 788 539 277 263 208 167 181 181 178 355 564 575 814 963 757 900 1198 1258 1033 976 1155 1480 1587 1619 1651 1900 1940 1748 1709 1778 1611 1600 1517 1351 1410 1422 1602 1423 1315 1719 2115 2459 2460 2450 2293 2886 2952 2407 2845 3124 3026 3117 3372 3414 3487 3431 3426 3347 3122 3080 3079 2962 2690 2640 2763 2784 2664 2538 2412 2340 2258 2192 2122 2087 2170 2168
1945 2122 2021 2010 2084 1677 1402 1598 1641 1368 1049 1042 868 620 458 447 473 534 497 455 547 456 644 833 822 1099 784 895 880 751 838 1143 1647 1663 899 1724 1415 1627 1597 1553 1585 1728 1507 1320 1098 1246 1257 1344 1322 1670 2381 2722 2596 2314 2104 2040 2020 2454 3203 3344 2828 2865 3270 3568 3577 3462 3580 3235 3106 3009 2898 2728 2541 2454 2762 2850 2714 2570 2391 2306 2237 2160 2054 2050 2078
1608 1427 1486 1704 1866 1882 1917 1868 1686 1796 1741 1619 1325 896 928 775 664 784 720 714 744 693 660 1049 961 973 944 1110 856 609 774 873 821 1606 1592 1561 1151 1212 1254 1248 1345 1592 1723 1505 1278 1324 1367 1428 1539 1630 1803 2408 2874 2711 2229 1800 1778 2031 2432 3688 3266 2712 2676 3068 3487 3579 3582 3530 3547 3395 3134 2854 2664 2569 2733 2970 2950 2792 2599 2411 2310 2216 2151 2052 2039
1027 890 1021 1210 1482 1759 1944 1805 1585 1690 1670 1426 1282 1253 1194 922 854 722 888 792 986 874 1046 1201 1244 1075 1032 1121 892 941 1079 885 944 863 1198 1098 1425 1323 1136 921 1146 1644 1938 1809 1626 1641 1436 1412 1438 1569 1910 1959 2214 2733 2680 2234 1968 1670 1668 1610 3357 2959 2696 2612 3024 3456 3588 3696 3723 3588 3528 3236 2940 2857 3006 3166 3265 3046 2888 2633 2439 2342 2250 2201 2144
1178 1380 1396 1518 1464 1631 1726 1701 1443 1479 1684 1870 1925 1694 1602 1330 1090 860 873 850 1105 1052 1054 1135 1306 1624 1227 1235 1304 1062 1094 1548 1456 1049 681 1434 1231 1068 901 849 922 1348 1945 2010 1281 1675 1263 1460 1176 1295 1776 2066 2124 2195 2544 2472 1975 1789 1709 1572 2081 2756 2662 2503 2485 2875 3231 3482 3651 3678 3776 3869 3450 3118 3034 2994 3225 3312 3086 3001 2737 2561 2440 2337 2265
1268 1502 1180 1740 1741 1917 1708 1882 1440 1377 1359 1375 1308 864 1080 1122 1093 1132 1076 1058 1215 736 757 952 1164 1170 1539 1703 1416 1441 1518 1556 1274 1504 1012 732 668 702 592 1141 1164 588 1216 1819 1676 1545 1635 1438 1422 1338 1514 1956 2100 2064 2120 2429 2441 2083 1602 1808 1859 2575 2803 2610 2643 2630 3004 3371 3672 3918 4006 3998 4086 3668 3200 3251 3325 3366 3277 3167 3088 2848 2661 2578 2493
1114 1238 1586 1602 1574 1712 1734 1700 1870 1957 1740 1676 1290 693 1231 1772 1593 1297 1368 1275 1314 1386 1337 1549 1385 1049 1307 1168 1280 951 1082 1721 2005 1936 1258 821 583 548 330 1023 538 488 1050 1362 1647 1523 794 1048 1637 1524 1362 1556 1904 2140 1915 2011 2168 2185 1964 1790 2140 2331 2638 2720 2646 3006 3064 3276 3818 4190 4337 4358 4314 4300 4308 4069 3687 3638 3476 3309 3235 3172 2974 2817 2845
470 539 809 651 1435 1755 1444 950 1234 976 1421 1624 1539 1288 524 481 1162 1566 1700 1496 1575 1559 906 1049 1587 1609 474 378 242 381 400 578 1941 1176 1167 1235 474 589 833 953 1245 1041 985 1144 1657 1446 1262 1406 1434 1618 1761 1741 1741 1906 2197 2243 2023 1782 1786 1749 1966 2308 2358 2228 2409 2741 2984 2980 3148 3938 4507 4505 4402 4443 4490 4394 4352 4006 3852 3716 3528 3413 3364 3205 3036
494 386 313 258 496 1215 1190 944 1032 1182 1518 1164 1632 1045 928 1004 937 568 670 735 1268 1340 848 824 848 1026 945 596 364 296 438 1352 1581 1107 958 686 574 617 403 154 902 1613 1833 1750 1900 979 1007 1182 1607 1572 2019 2131 1776 1705 2004 2417 2066 1764 1597 1562 1642 1908 2251 2145 1991 2168 2211 2244 2575 2922 3615 3888 3821 3993 4085 4125 4222 4390 4396 3971 3860 3665 3722 3728 3624
395 324 215 212 331 438 454 724 821 862 722 1200 1095 935 690 879 1435 1612 1302 1376 918 1020 1192 979 898 718 711 708 538 646 714 615 273 832 828 770 644 364 204 168 801 1422 1547 1848 1366 1110 1480 828 1103 1332 1604 1926 1919 1819 1602 1588 1568 1686 1784 1724 1564 1563 1772 2004 1948 1806 1755 1699 1731 2109 2560 3018 3282 3359 3483 3664 3876 4104 4245 4302 4158 4084 3996 3944 3819
380 252 208 234 263 364 301 280 354 477 384 483 638 835 1144 1457 741 1218 1425 1258 1044 1112 1247 1385 1127 742 662 665 669 800 470 500 527 206 704 662 800 656 462 416 793 876 1859 1670 1581 1476 1713 1790 1290 1580 1509 1689 1777 1676 1432 1554 1519 1598 1797 1310 1461 1662 1671 1766 1787 1732 1615 1534 1476 1450 1602 1834 2080 2299 2618 2972 3328 3689 3908 4065 4152 4177 4226 4258 4168
201 249 188 190 163 136 238 215 248 282 284 324 318 297 334 375 626 855 736 1024 1327 1167 1080 1004 1358 1227 1154 895 992 957 831 716 471 510 474 1109 706 384 715 635 754 958 726 896 818 741 1077 844 911 1297 1790 1672 1611 2004 2046 1899 1874 1584 1775 1601 1454 1537 1701 1697 1679 1644 1608 1547 1450 1394 1369 1431 1523 1687 1920 2170 2472 2810 3139 3485 3790 3990 4099 4080 3964
220 192 221 187 78 98 155 173 201 216 244 268 264 240 320 392 496 776 1008 944 958 900 892 817 667 780 748 1193 482 689 776 731 768 676 695 650 670 337 262 666 213 729 686 444 846 436 675 914 366 1012 1566 1718 1703 2089 2350 2334 1917 1499 1061 1763 1456 1452 1504 1717 1558 1457 1415 1414 1415 1376 1345 1285 1258 1326 1436 1602 1790 2040 2322 2505 2758 2974 3172 3294 3443
182 188 118 113 125 120 82 99 203 224 242 258 246 160 248 299 430 795 992 775 865 1077 1022 960 1061 1482 1594 1607 1117 1200 1444 1250 1274 742 789 751 773 599 819 1009 557 493 712 752 386 347 868 1188 814 868 1667 1874 2130 2182 2150 2060 1856 1650 1563 1525 1595 1773 1833 1857 1677 1422 1273 1199 1167 1164 1146 1067 1056 1083 1138 1196 1246 1257 1322 1510 1721 1890 2041 2224 2354
148 149 144 137 142 124 150 122 156 198 223 258 243 234 328 416 401 532 770 876 1028 1094 854 1084 1014 1234 1617 1198 1217 867 927 696 1439 1192 978 1055 1003 995 790 913 476 362 518 321 181 594 735 622 930 974 1006 1812 2386 2410 2494 2418 1788 2259 1982 1785 1700 1151 1533 1706 1782 1524 1327 1184 1044 979 924 924 944 940 936 950 952 936 926 947 1020 1130 1270 1360 1392
140 178 194 196 194 225 226 199 180 196 222 252 321 373 390 327 257 458 598 773 1206 1424 1262 880 308 658 1349 1586 689 318 498 782 613 877 759 1004 1141 1028 602 299 286 255 344 218 166 365 528 954 850 987 1286 1714 1660 2791 2796 2711 2356 3063 2404 1901 1722 1535 984 1514 1891 1775 1591 1400 1209 1042 926 906 900 888 866 840 826 808 820 844 851 852 895 925 950
168 179 209 175 177 212 340 307 178 207 251 310 405 520 651 689 723 564 271 293 332 442 599 616 758 1200 1149 546 401 536 723 592 560 479 704 787 996 1086 808 469 420 794 750 426 218 451 259 250 635 550 686 1295 2046 2366 2465 2561 2685 2639 2398 2195 2401 2001 1382 2451 2066 1955 1860 1866 1599 1243 1094 1007 964 928 887 851 827 805 801 785 763 767 776 752 740
140 162 212 234 275 332 296 281 337 298 362 378 438 561 760 1085 1091 656 531 423 398 460 341 248 365 568 453 444 544 448 325 722 699 522 462 599 585 843 760 489 306 352 457 572 380 323 632 246 131 287 656 1203 1896 1842 2163 2260 2720 2742 2888 2254 3133 2394 3018 2621 1568 1261 1542 2080 1886 1353 1147 1037 974 936 888 873 856 855 881 902 873 858 824 780 750
246 205 241 344 487 619 736 837 834 920 754 716 707 931 1134 1115 794 785 792 732 478 670 664 638 554 509 294 224 256 322 399 390 388 345 532 567 632 834 1006 913 676 1040 1095 784 742 862 818 476 155 110 236 792 1035 1250 1143 1684 2822 2974 2757 3306 2783 2874 3162 2749 2953 2380 2018 2153 1664 1242 1050 961 926 936 970 992 1035 1031 1014 975 952 908 862 832 798
240 275 362 459 535 718 796 868 1019 1419 1263 864 864 983 952 1122 1121 1111 1117 683 676 502 470 362 585 550 282 410 228 93 302 255 303 423 265 448 487 415 470 503 472 358 410 692 557 523 648 377 370 212 173 218 709 836 1093 1237 2303 2595 2873 3280 3760 3329 3552 3377 2600 3224 2238 1626 1253 1080 1032 1075 1102 1133 1135 1115 1100 1093 1056 1059 1031 982 967 953 938
187 275 356 431 544 736 877 1034 1371 1588 1415 1070 878 886 1038 1153 1149 831 841 992 747 511 267 273 168 162 272 288 190 194 179 194 308 378 401 383 480 377 363 348 315 359 386 800 713 373 269 326 240 126 207 175 273 147 299 732 1601 2807 2425 1797 2879 2794 2660 3042 3277 3108 2107 1616 1183 1133 1210 1186 1182 1174 1152 1149 1123 1126 1152 1161 1121 1082 1051 1011 999
229 370 483 651 842 978 1202 1329 1407 1459 1458 1324 1109 789 1068 1038 1079 1148 834 951 762 474 245 261 217 221 190 172 135 194 153 159 306 668 730 494 268 560 350 395 557 425 168 333 669 390 255 125 200 176 188 169 266 376 304 970 1546 2072 2525 2438 3257 2461 2655 2630 3037 3015 2936 1264 1276 1233 1234 1212 1200 1201 1217 1216 1249 1261 1280 1221 1162 1108 1012 966 907
444 483 538 654 973 1280 1425 1400 1350 1428 1192 1154 1248 1296 1244 1211 1046 868 1063 1134 961 304 208 182 70 122 57 20 30 68 234 177 10 377 903 703 470 330 236 334 346 560 455 1024 1130 1238 837 318 206 275 353 299 165 500 343 1231 1550 1398 1554 1723 2096 2428 2768 2571 2268 1983 2852 1390 1658 1302 1344 1327 1328 1368 1353 1337 1320 1296 1237 1168 1093 992 921 874 837
2 8 47 195 669 1264 1388 1308 1376 1463 1562 1546 1467 1535 1289 1206 1151 1126 1042 866 484 204 196 126 79 54 22 6 11 32 52 116 100 96 337 749 281 568 460 131 260 355 318 290 655 744 684 523 431 280 298 295 421 438 568 916 672 1258 1428 2026 2162 2476 2464 1718 2252 3228 3032 3378 2439 1840 1465 1387 1460 1453 1388 1312 1280 1225 1153 1083 1005 936 907 866 882
1 17 67 145 216 756 1354 1438 1302 1275 1498 1510 1628 1585 1427 1098 846 915 1027 913 400 205 214 98 56 42 18 14 14 17 23 56 55 87 101 566 646 523 448 171 246 440 840 408 499 576 626 475 560 373 330 301 244 356 754 1077 1464 1548 1246 2177 2660 1911 1446 1785 2441 1974 2876 2286 2250 2622 3220 2808 2219 1498 1254 1220 1185 1175 1160 1114 1052 1021 954 991 1026
0 0 6 114 168 276 386 772 1194 1542 1594 1558 1636 1636 1451 1080 951 878 750 616 339 213 130 46 40 35 8 13 55 46 31 30 32 85 109 175 820 648 464 272 206 329 335 165 280 464 544 444 372 382 402 434 576 642 804 1172 1665 1379 1148 1785 2001 1592 1516 1794 1802 2085 3156 1854 1946 2146 2629 2456 2588 2206 1646 1357 1233 1214 1217 1088 979 940 964 1063 1052
0 0 63 169 276 403 498 797 1462 1738 1533 1536 1676 1616 1112 843 824 812 754 679 430 100 104 86 33 17 3 6 10 10 34 114 26 62 57 100 161 533 631 343 236 538 451 180 251 257 385 439 536 344 367 390 228 580 652 1419 1165 947 1190 2317 1709 1695 1740 1598 2312 2562 3018 2694 2887 2873 2482 3432 3020 2473 3200 2920 2199 1086 847 778 956 762 821 823 787
0 21 260 436 484 593 604 578 946 1570 1626 1748 1461 731 321 694 730 806 723 716 656 283 107 67 17 4 0 1 2 6 5 10 82 135 0 18 20 4 258 862 820 558 167 374 436 504 582 117 135 142 159 214 247 265 798 608 926 861 736 1204 1135 878 1183 2238 2178 2644 3205 2326 2165 2727 3084 2930 2663 2848 2663 2845 3145 2442 2618 1637 1623 1386 809 630 697
62 324 394 417 420 403 474 782 1098 1555 1638 1784 1302 644 430 445 861 833 678 685 630 350 108 64 39 20 6 3 1 8 17 17 4 0 0 0 10 1 2 54 75 44 454 383 249 127 542 284 195 215 165 275 235 284 214 153 138 270 591 1642 1382 1772 2304 2095 1745 1092 2610 3180 2777 1540 2848 3055 2402 1766 1967 2827 2611 2961 2384 2178 2009 1300 1070 872 697
34 66 186 394 477 531 748 998 1143 1430 1481 1406 1281 874 551 552 640 922 680 573 619 640 274 176 85 49 48 40 21 4 9 4 3 1 0 0 0 0 0 0 2 19 50 216 111 180 560 167 139 210 136 106 245 243 171 0 174 288 439 273 782 1628 1523 807 1466 1262 1927 2378 2604 2280 2399 1936 2047 1812 2609 2831 2479 2314 2188 2433 1697 1613 1338 1138 947
35 201 274 255 390 553 717 785 762 1007 1210 1428 1316 1068 645 640 679 704 737 526 798 722 546 460 180 60 110 106 55 27 3 2 0 0 1 1 0 0 0 0 0 0 15 49 49 120 34 162 107 131 170 173 102 154 125 192 282 198 145 716 1064 1249 1451 1638 1749 1520 1779 2196 2886 1860 1122 1607 2302 2726 1786 2189 2178 2163 2600 1396 1274 1191 1160 1041 918
33 109 190 275 327 428 391 470 647 879 1207 948 1140 1101 712 734 743 586 784 526 554 658 732 572 393 176 154 118 118 59 29 10 1 2 2 2 2 1 1 1 0 0 0 15 155 160 88 70 82 67 91 116 75 135 128 207 208 330 382 790 1861 1548 1770 1677 1584 1513 1614 2797 2086 1793 1043 971 2342 1840 1610 1818 1870 2062 2291 2560 1154 906 883 856 766
23 151 252 285 357 415 410 400 435 444 545 1232 1234 1016 709 746 754 388 843 590 658 734 809 620 369 344 214 140 170 133 76 46 32 0 0 1 1 1 1 1 2 0 93 171 33 144 84 60 52 106 149 137 60 86 146 100 176 659 1055 573 1182 1529 1528 1388 1415 1447 953 2466 2523 1291 767 628 1234 1604 1745 1625 1750 1871 1981 1526 1109 852 768 742 686
181 238 432 539 780 884 682 510 484 640 509 1019 1241 1050 702 611 754 1010 564 405 500 610 920 832 576 478 278 186 172 138 103 85 50 16 0 0 0 3 1 0 0 3 3 20 25 42 135 189 108 50 28 25 12 67 102 328 770 612 164 1090 1295 1515 1454 1367 1447 1388 841 2113 1337 1116 864 609 168 1343 1636 1660 1478 1648 1582 1181 1150 753 637 666 612
89 52 110 80 292 720 771 701 444 542 765 1324 1132 1098 846 562 484 1093 332 278 458 846 1086 1008 799 406 351 320 200 226 216 168 114 70 23 0 1 3 4 1 3 4 5 6 7 0 0 0 0 0 0 0 0 0 6 70 205 495 504 454 284 948 922 959 858 748 852 670 734 974 344 398 465 1464 1459 1383 1516 1608 1493 1234 1720 771 612 532 342
138 208 107 10 33 556 632 545 504 602 235 330 924 1098 1076 792 708 1274 581 335 388 851 971 1235 1106 507 452 310 252 280 266 229 145 103 57 18 5 3 4 3 3 5 6 4 87 30 0 0 0 0 0 0 0 0 12 39 34 88 818 496 148 176 390 548 527 412 489 366 559 469 453 30 644 1531 1271 1202 1463 1456 1290 1286 1011 804 646 446 0
356 657 374 492 573 710 184 102 293 630 760 361 754 1054 1152 999 868 1611 1361 553 642 795 772 1324 1380 924 558 392 252 240 224 192 140 102 46 27 9 2 6 4 3 4 44 8 38 74 60 2 0 0 0 0 2 12 90 26 36 88 119 87 114 110 82 72 263 408 259 105 248 1713 984 834 667 1672 1366 1333 1445 1670 1237 1322 1007 689 407 137 0
Wind_Speed
12 16 19 20 19 18 17 15 13 11 11 11 12 13 14 15 17 16 15 15 14 13 13 11 8 9 13 19 22 21 20 20 19 18 17 16 16 17 17 14 9 8 7 5 5 5 6 6 5 4 3 2 1 2 4 5 6 7 8 8 8 8 8 8 8 8 7 7 7 7 8 9 9 9 10 11 12 12 14 14 15 16 16 16 17
12 16 19 20 20 21 21 19 17 15 13 11 13 13 14 17 19 19 15 16 15 15 16 14 11 9 11 15 20 22 23 21 20 20 19 18 17 17 19 15 12 9 8 8 6 6 5 5 5 5 4 3 2 1 2 3 5 5 6 7 7 8 8 8 9 9 8 8 8 8 8 9 10 10 11 12 12 13 14 15 16 16 17 17 17
13 17 19 19 21 21 20 20 19 20 20 18 16 16 18 18 20 18 18 17 18 17 16 17 15 13 12 13 16 21 23 22 21 21 20 20 19 18 18 16 13 11 9 9 8 7 6 6 5 5 5 3 3 3 2 2 3 4 5 5 6 6 7 7 8 8 9 8 8 8 8 9 10 11 12 12 13 14 14 15 16 17 17 17 17
16 17 19 22 20 19 19 18 19 20 20 19 16 14 14 13 14 18 16 17 18 17 18 18 18 17 16 15 14 16 21 23 23 22 22 23 22 20 18 17 15 13 11 10 10 9 8 7 7 6 6 5 3 3 3 2 2 3 3 4 5 5 5 7 7 8 9 9 9 9 9 9 10 11 12 12 13 14 15 15 15 17 17 17 17
15 22 21 18 20 22 21 20 18 20 18 18 16 16 15 16 18 19 19 20 19 19 20 21 20 20 19 18 18 15 17 21 24 24 23 22 22 21 20 18 17 17 14 13 11 11 10 10 9 8 7 7 5 4 3 3 2 1 2 2 3 3 4 6 7 8 8 7 7 9 9 9 10 10 11 12 13 14 14 15 15 16 17 17 17
21 25 24 24 22 23 24 22 18 19 18 18 19 20 19 18 17 15 18 21 21 21 22 22 24 22 21 20 20 18 15 16 20 23 24 23 24 24 23 21 20 19 20 17 15 13 13 12 11 10 9 8 7 6 4 3 2 2 1 1 0 2 3 4 6 6 6 6 7 7 8 8 9 10 10 12 13 14 14 14 14 15 16 17 18
29 26 26 27 28 27 27 27 18 16 18 20 20 21 22 20 17 17 17 19 21 22 23 23 25 28 20 23 21 20 17 14 15 19 22 23 24 24 25 24 22 21 21 21 20 16 16 14 14 12 12 11 9 8 6 4 3 2 1 1 2 2 2 3 4 4 5 5 6 6 7 8 8 9 10 11 12 13 13 14 14 14 15 16 17
29 30 28 27 28 30 34 34 24 18 17 21 22 23 24 24 21 19 19 17 19 21 23 24 26 25 25 25 23 21 19 16 14 15 18 21 23 25 26 26 25 24 23 22 22 21 18 17 16 15 14 13 11 10 8 6 5 4 3 3 3 2 2 2 2 3 4 4 4 5 6 7 8 9 10 10 11 11 12 13 13 13 14 15 16
29 28 28 26 25 28 34 32 28 26 24 24 23 24 27 26 23 22 18 17 17 16 20 23 24 25 26 24 24 24 18 18 16 15 16 18 21 24 26 27 27 27 26 24 24 24 24 19 19 17 16 15 14 13 11 9 7 7 5 4 4 4 3 2 2 2 3 4 4 4 5 6 8 9 10 10 11 11 11 12 12 12 13 13 14
26 30 28 30 29 24 26 28 29 29 30 28 25 27 29 30 26 22 20 19 17 16 19 23 23 24 26 25 26 26 24 22 19 17 15 16 19 21 24 27 28 28 28 27 25 25 25 25 21 19 18 17 16 15 14 12 10 9 8 6 5 4 5 4 3 3 2 2 3 3 3 4 6 7 8 9 10 10 10 10 11 11 11 11 12
25 29 33 33 34 29 25 27 27 26 28 27 23 24 27 30 28 27 26 21 19 18 20 25 25 25 26 25 26 26 27 26 23 19 18 16 17 19 22 24 27 29 30 29 28 27 26 27 26 24 23 19 18 17 16 15 14 11 9 8 6 5 4 5 4 4 3 2 2 1 2 3 3 5 6 7 8 9 9 10 10 11 11 11 11
27 32 35 34 35 33 29 27 28 28 29 nan nan nan nan nan nan 24 25 25 24 21 21 25 27 24 22 24 23 24 25 28 26 21 19 18 18 19 20 22 25 27 28 30 30 29 28 27 27 28 24 24 20 19 17 17 16 15 11 9 7 6 5 6 6 5 4 3 3 1 1 2 3 4 5 6 6 7 8 9 9 10 10 11 11
25 29 32 32 33 32 30 28 28 28 nan nan nan nan 24 22 21 23 22 22 26 28 25 26 25 22 21 21 22 24 23 24 22 21 21 22 21 20 21 22 23 25 28 30 31 31 30 29 29 28 27 28 27 21 21 19 18 16 14 11 9 8 7 6 6 6 5 4 3 1 0 1 2 4 4 5 5 6 7 7 8 8 9 10 10
25 27 29 29 28 29 28 25 25 26 nan nan nan nan nan nan 23 24 25 23 23 28 29 30 26 25 26 26 24 26 25 23 21 21 22 23 23 22 23 22 21 23 25 28 29 30 30 31 30 28 28 28 29 32 27 24 20 17 16 14 11 9 8 6 6 5 5 4 3 2 2 0 1 3 4 5 5 6 6 7 7 8 8 9 10
23 24 26 27 28 28 28 28 27 26 26 24 24 25 25 24 25 27 26 25 22 24 29 31 30 31 30 30 28 29 31 29 26 22 24 25 25 24 24 23 22 23 24 24 25 28 29 30 30 30 30 29 29 30 32 29 26 22 18 16 14 11 9 8 6 5 5 5 4 3 2 1 1 2 3 4 5 6 6 7 7 8 8 9 9
23 22 24 25 24 25 25 27 28 27 25 24 24 24 26 28 29 29 27 24 24 22 26 29 31 36 33 30 31 37 30 29 31 32 26 25 24 25 27 26 26 25 24 22 22 24 27 29 29 31 31 31 31 30 30 29 27 24 22 19 16 14 12 10 8 6 6 6 4 4 3 2 1 1 3 4 5 6 6 7 7 8 8 8 8
24 23 23 24 24 24 26 27 29 29 27 26 26 26 28 29 30 30 29 26 21 22 24 27 30 36 35 37 36 36 30 33 33 33 33 30 23 26 28 27 27 28 27 25 23 23 24 26 29 31 32 32 32 31 31 30 30 30 28 25 20 16 14 12 10 8 7 6 5 5 3 3 2 2 2 4 5 5 6 6 7 7 8 8 8
24 23 22 22 23 24 25 26 27 30 30 28 28 30 31 31 31 30 28 26 23 20 20 27 31 33 32 32 35 34 35 37 36 34 35 30 31 33 30 26 28 30 29 28 27 24 24 24 26 28 31 32 33 33 32 31 31 32 31 29 25 21 18 15 13 10 9 7 6 5 5 4 4 3 3 3 4 4 5 5 6 7 7 7 8
25 25 24 24 24 26 26 26 27 28 29 31 32 32 33 35 35 33 29 29 26 22 20 25 28 28 30 32 29 25 29 37 36 38 34 35 34 33 30 28 27 28 29 29 27 26 23 23 23 25 28 31 33 34 34 33 30 30 29 29 29 25 21 18 15 14 11 9 8 7 6 6 6 5 4 3 3 3 4 4 5 5 6 7 7
27 27 27 28 29 30 30 30 30 30 31 32 33 34 36 36 36 35 32 30 29 25 22 26 27 27 31 33 28 24 25 27 29 36 38 37 38 35 29 34 35 30 27 27 26 26 27 24 24 25 27 28 31 33 34 34 33 31 31 29 30 31 27 22 19 16 14 12 10 9 8 8 8 7 5 4 3 3 3 3 4 4 5 6 6
28 29 30 31 34 35 35 35 36 36 36 34 36 33 33 35 35 35 33 31 31 28 24 24 26 26 32 31 27 26 26 28 32 37 38 37 34 34 31 36 33 29 29 28 25 25 26 26 28 27 26 25 27 29 32 34 34 32 30 31 32 30 30 27 23 19 16 14 13 12 10 9 9 8 8 8 4 3 3 3 4 4 4 5 5
28 30 31 33 34 36 38 38 38 37 36 34 34 36 34 31 30 30 29 28 29 28 26 24 26 30 36 33 28 25 24 27 34 38 37 36 36 36 36 35 33 31 32 30 29 28 26 30 30 28 25 23 24 26 28 31 34 33 31 30 33 32 29 27 25 21 18 16 15 14 13 11 10 9 8 7 7 6 5 4 4 4 4 5 5
30 33 33 34 36 37 38 40 40 39 36 33 35 34 31 30 30 29 25 24 26 27 28 25 26 28 29 31 29 29 23 22 32 38 38 39 38 35 35 33 32 30 34 36 34 28 28 27 31 29 27 24 23 24 25 28 30 31 31 33 33 34 31 27 25 21 19 17 16 15 14 11 10 9 9 8 7 7 7 6 5 5 5 6 6
33 34 36 38 39 40 41 40 39 37 35 34 31 30 28 27 27 28 27 27 26 25 27 29 27 27 26 28 28 30 28 24 24 35 38 38 38 39 38 39 34 30 33 39 35 31 28 25 26 30 29 27 25 24 24 25 29 30 32 31 34 35 34 29 25 22 20 18 17 15 14 13 12 11 10 9 8 7 7 7 6 6 6 6 6
34 35 37 39 41 41 42 42 40 37 33 31 29 27 26 25 25 25 26 27 27 25 26 27 28 26 27 30 31 29 27 28 28 29 35 40 41 42 42 38 39 33 36 37 37 33 28 27 27 32 30 28 26 25 24 25 29 32 32 32 31 33 34 32 27 24 21 19 18 16 16 15 14 13 12 11 10 9 9 8 8 8 8 8 8
34 35 37 39 41 42 42 41 39 36 33 30 29 28 27 26 25 24 23 26 28 27 26 23 25 25 27 27 29 33 33 31 29 31 30 38 38 39 43 40 39 40 40 45 43 41 36 29 29 32 29 28 27 26 25 25 26 29 34 33 33 34 33 32 29 27 24 22 20 18 17 17 16 15 15 14 13 13 12 11 10 10 10 10 10
35 36 37 38 nan nan 41 40 37 34 32 31 30 29 28 28 28 27 27 27 27 28 28 23 24 25 25 29 28 31 34 33 34 34 36 36 36 38 40 38 37 41 39 35 41 37 32 33 30 32 31 30 28 26 25 27 26 27 32 34 32 32 33 32 31 29 27 25 22 20 19 18 17 17 17 16 15 15 14 13 12 12 12 12 12
35 36 37 38 38 39 nan nan 35 33 31 31 30 28 27 26 27 28 27 29 29 28 29 26 25 25 27 29 28 31 34 33 36 38 34 33 32 35 40 38 36 40 37 33 36 34 29 33 33 30 33 33 31 28 25 25 26 28 30 33 33 33 35 34 33 31 29 27 24 22 21 19 19 19 18 18 17 16 16 15 15 15 15 15 16
36 36 37 38 37 37 36 34 33 32 31 31 30 28 27 27 27 27 28 29 29 29 30 31 29 28 29 29 34 35 32 29 32 37 36 34 29 30 37 40 37 36 37 37 35 36 34 34 34 31 30 35 35 32 29 27 25 29 30 33 33 31 34 34 34 33 31 29 26 24 23 21 21 21 20 20 19 18 18 17 17 17 17 18 18
36 36 37 37 36 35 34 32 31 31 31 31 30 29 29 30 28 28 29 29 28 28 30 30 30 31 30 30 32 33 31 29 28 34 37 34 31 29 31 36 33 32 34 32 33 35 36 38 34 31 29 37 37 36 33 29 27 29 31 32 32 32 32 36 36 35 33 30 28 26 24 24 24 24 23 22 21 20 20 19 20 20 20 20 19
37 36 36 36 34 32 32 30 30 29 29 30 30 29 29 30 30 29 28 29 29 27 26 27 30 31 31 29 29 30 31 29 29 31 34 33 32 31 31 34 32 32 34 33 31 36 37 37 37 32 30 38 39 39 37 34 30 29 30 34 34 35 33 37 38 36 33 31 29 27 27 27 28 27 26 25 24 22 22 22 22 22 22 21 21
36 36 36 35 32 30 29 29 28 28 28 29 30 30 31 33 33 32 29 27 28 29 28 28 29 30 30 31 31 31 32 32 31 33 34 34 33 34 33 31 26 25 28 33 34 34 38 38 40 38 33 31 40 40 39 37 34 30 33 35 37 39 35 35 34 32 32 32 31 29 29 30 30 30 29 28 26 25 25 24 24 24 23 23 22
37 37 36 35 32 29 28 28 27 28 29 29 30 31 33 34 34 33 30 29 28 30 30 29 28 28 28 30 32 32 33 33 31 31 33 35 35 36 38 37 31 27 31 36 36 36 41 40 37 37 39 40 36 38 37 36 36 34 32 35 37 35 35 34 35 35 33 34 33 33 33 33 33 33 32 30 29 28 27 26 25 25 24 24 23
37 37 36 35 33 30 29 29 28 29 29 30 31 33 33 33 33 35 34 33 27 26 29 29 29 29 29 29 30 nan 33 32 32 32 31 34 36 34 35 38 36 32 31 37 36 37 40 42 37 35 37 35 35 40 41 35 35 36 32 32 34 35 37 38 36 38 35 35 36 37 36 36 35 35 34 33 31 30 29 28 27 26 26 25 25
36 38 37 35 33 31 30 30 30 31 31 33 35 35 35 34 33 34 32 30 26 22 24 25 25 27 27 29 30 32 35 33 33 34 32 31 36 36 33 35 35 34 33 37 39 37 38 40 39 38 38 35 33 34 36 37 38 34 33 32 31 36 37 36 38 41 40 35 36 38 38 37 37 37 36 34 33 31 30 28 27 27 27 27 27
36 37 36 35 33 32 31 31 32 34 35 36 36 37 36 35 33 36 33 28 24 21 21 21 21 24 25 27 29 31 33 33 33 36 38 37 36 38 35 36 37 36 32 35 38 40 39 38 41 40 38 36 36 37 40 42 41 38 33 32 30 33 36 37 39 41 39 38 36 38 39 39 38 38 36 35 33 31 29 28 28 28 28 29 28
36 36 36 35 33 33 33 33 33 35 36 37 38 38 37 35 33 31 29 28 24 21 22 21 nan 21 nan nan nan nan 31 34 nan 34 38 37 37 38 37 36 38 37 35 39 41 41 40 38 39 42 40 38 38 39 40 43 44 41 34 32 32 32 33 35 38 39 41 36 35 36 39 38 37 37 36 34 32 31 29 29 29 29 29 29 28
nan nan nan 35 33 32 33 34 35 36 38 40 40 39 36 34 32 30 29 26 23 22 23 23 nan nan nan nan nan nan nan 31 35 nan 34 35 35 36 35 34 36 38 36 36 42 40 40 40 40 39 41 39 38 39 40 40 38 38 34 31 30 30 32 32 36 41 43 44 43 41 40 38 35 33 33 33 32 31 30 30 30 29 28 27 26
nan nan nan 32 33 33 33 35 36 36 38 40 41 39 36 33 30 29 28 26 24 25 25 nan nan nan nan nan nan nan nan nan nan nan 32 34 38 35 35 33 33 34 36 36 39 39 40 39 39 39 40 39 38 38 40 40 40 40 37 36 35 33 29 29 34 40 42 39 35 33 36 34 33 33 32 31 32 31 31 30 28 27 26 25 25
nan nan nan 32 32 34 35 36 37 38 39 40 39 38 34 31 30 28 27 25 24 25 25 nan nan nan nan nan nan nan nan nan nan nan 38 34 37 36 37 34 32 33 34 33 36 39 39 37 38 40 41 40 41 41 43 42 40 38 36 35 35 36 34 31 32 35 41 38 34 34 33 34 37 33 34 33 32 32 30 28 25 24 23 23 23
nan nan nan 32 33 34 35 36 37 39 39 39 38 37 32 29 29 27 25 24 22 24 24 nan nan nan nan nan nan nan nan 28 nan nan nan nan 43 43 40 36 33 33 37 34 35 37 39 40 39 39 40 40 38 41 41 39 35 35 36 36 35 35 35 31 32 34 39 35 35 34 31 31 32 31 35 37 36 32 29 25 24 22 21 22 22
nan nan 33 33 34 35 36 38 38 40 39 38 41 41 33 29 27 26 24 23 23 23 23 nan nan nan nan nan nan nan nan nan nan 44 nan nan nan nan 37 35 32 36 36 32 35 38 38 36 37 37 37 36 37 36 37 36 38 36 34 36 33 33 32 32 35 34 36 32 31 31 32 34 30 30 28 31 34 35 31 31 26 23 23 20 20
nan 36 35 35 35 36 36 37 38 39 38 37 42 38 34 29 27 24 23 22 23 24 23 nan nan nan nan nan nan nan nan nan nan nan nan nan nan nan nan nan nan nan 37 36 35 36 40 38 39 39 39 37 35 35 35 36 38 36 36 38 36 35 35 33 31 32 30 28 29 29 31 34 29 27 26 30 31 31 31 27 27 20 23 21 18
nan nan 35 36 36 37 38 38 37 38 35 37 40 36 31 28 27 24 22 22 24 24 24 22 nan nan nan nan nan nan nan nan nan nan nan nan nan nan nan nan nan nan nan 33 34 35 35 34 36 36 37 36 37 36 37 nan 39 38 37 37 36 37 35 29 27 28 33 27 28 28 32 35 28 25 29 32 32 32 30 35 31 25 24 22 20
nan 37 36 36 38 38 38 37 35 34 30 39 38 33 29 26 25 24 22 22 23 23 22 21 19 nan 18 17 nan nan nan nan nan nan nan nan nan nan nan nan nan nan nan nan nan 29 nan 32 35 35 35 37 35 37 39 40 42 38 36 34 36 35 35 31 30 30 33 26 32 33 28 30 27 30 32 32 32 32 32 32 28 26 22 20 19
nan 37 36 37 38 38 37 36 34 32 27 36 31 32 28 26 25 23 22 21 23 23 21 19 17 17 17 16 19 nan nan nan nan nan nan nan nan nan nan nan nan nan nan nan 23 24 nan nan nan nan nan 36 nan 37 37 40 39 37 37 37 36 37 37 33 32 31 32 33 31 28 27 28 30 30 30 31 31 31 27 31 28 24 22 20 21
nan 37 37 36 36 36 35 33 29 28 28 35 29 29 28 25 23 23 22 22 22 23 23 19 16 17 17 14 16 22 nan nan nan nan nan nan nan nan nan nan nan nan nan 28 nan 33 nan nan nan 28 31 32 nan nan 37 nan 35 36 39 38 39 41 41 39 40 37 33 33 31 29 26 27 29 28 28 29 30 29 27 32 27 25 23 23 22
37 36 35 33 32 32 31 28 26 25 25 35 29 29 28 25 24 24 21 22 22 22 23 20 16 15 15 12 14 20 24 nan nan nan nan nan nan nan nan nan nan nan nan nan nan nan 26 25 24 nan nan nan nan nan 36 37 39 37 39 43 49 48 48 47 40 38 33 36 31 28 28 26 24 25 25 27 29 27 27 26 29 28 28 25 24
nan nan 34 nan 30 31 27 20 16 19 22 32 31 30 29 27 25 22 20 21 22 22 22 23 18 12 12 12 10 19 24 26 29 nan nan nan nan nan nan nan nan nan nan nan nan nan nan nan nan nan nan nan nan nan nan nan 37 39 40 41 40 44 44 44 42 38 33 34 28 24 24 24 25 24 24 28 28 27 27 26 32 31 32 29 28
33 34 33 nan nan 29 27 22 20 16 15 22 34 31 30 29 26 22 21 21 22 22 23 25 24 15 12 11 7 14 24 26 26 31 nan nan nan nan nan nan nan nan nan nan nan nan nan nan nan nan nan nan nan nan nan nan nan nan 40 40 39 39 39 43 44 40 36 30 25 24 24 nan 24 25 26 29 29 27 27 26 31 36 37 35 nan
35 34 35 29 25 22 18 16 16 16 17 17 31 33 32 29 28 25 23 21 21 22 24 27 27 21 14 12 9 7 17 23 24 26 nan nan nan nan nan nan nan nan nan nan nan nan nan nan nan nan nan nan nan nan nan nan nan nan 35 nan 37 39 nan nan 41 39 34 31 26 26 26 25 25 27 29 31 28 29 28 27 29 32 32 32 nan
Wind_Direction
273 275 274 274 276 276 277 272 265 267 267 275 267 256 250 241 238 240 242 243 253 266 269 269 273 277 252 239 237 236 231 227 228 232 230 230 236 250 263 260 246 246 247 233 226 209 224 247 233 252 266 286 7 69 65 55 52 45 34 23 17 16 14 14 17 20 24 28 35 47 54 57 56 55 57 60 64 67 69 72 74 74 74 77 78
264 265 265 268 272 267 263 265 268 265 264 257 261 256 247 241 238 234 229 237 247 254 265 267 272 279 275 252 244 239 240 234 232 229 231 236 236 234 265 256 256 248 246 247 242 235 225 237 247 242 264 283 300 358 74 68 62 53 40 31 24 22 18 17 20 23 26 27 30 41 50 52 53 50 52 57 61 66 69 73 74 75 75 77 81
247 247 253 256 257 267 279 279 271 257 255 247 235 229 231 232 237 234 233 236 237 240 254 267 271 273 278 274 257 248 243 240 236 234 232 237 236 235 245 265 255 254 250 253 252 256 244 239 247 254 258 275 295 312 351 59 66 63 52 38 31 26 24 20 20 27 30 31 34 40 48 51 48 47 48 52 57 61 65 71 75 75 77 79 80
236 239 243 251 266 272 277 275 263 253 262 267 262 261 268 264 234 245 242 239 245 250 252 261 267 268 269 274 268 257 250 245 243 240 231 228 233 236 236 247 266 258 255 254 256 261 262 260 254 256 262 269 284 304 317 354 40 64 66 44 26 20 19 23 24 27 33 34 35 39 45 49 48 46 49 52 56 58 61 67 73 75 77 78 78
258 257 263 272 273 278 281 282 277 275 267 255 243 249 248 240 231 233 244 243 244 244 248 254 260 262 262 263 268 267 257 250 247 244 238 235 235 234 237 240 246 273 265 255 258 257 264 269 267 262 265 270 276 286 300 319 349 9 65 60 29 352 2 11 19 28 32 34 34 36 40 46 50 49 52 57 59 60 61 65 69 72 74 76 76
272 273 273 272 274 281 285 284 284 282 285 273 260 257 256 252 252 248 237 242 244 245 246 247 252 255 256 260 261 266 263 256 251 247 245 239 236 235 236 238 241 245 253 267 259 259 259 267 270 267 262 267 269 275 284 295 309 311 11 60 338 313 351 3 15 16 18 24 35 38 37 42 50 53 55 62 65 64 64 65 68 71 72 73 74
290 285 285 285 290 291 287 287 290 288 288 284 272 265 260 259 249 245 243 237 243 248 249 248 248 249 247 244 249 259 264 264 256 248 246 243 240 238 237 238 238 240 246 247 263 261 261 263 267 266 264 263 266 271 279 279 279 279 293 267 252 271 300 333 347 354 359 8 25 36 39 42 50 57 61 67 70 66 65 66 65 66 68 70 72
298 296 294 295 295 297 293 292 301 296 289 282 274 268 267 261 258 252 248 249 244 249 255 253 253 252 252 261 251 244 254 262 263 257 248 245 243 240 238 240 240 239 238 242 243 254 267 263 263 266 262 261 262 267 270 272 269 265 253 247 249 251 266 297 318 332 343 355 9 31 42 46 48 55 61 66 70 71 67 64 65 65 64 65 68
311 307 305 308 302 293 288 292 295 294 288 281 273 267 267 263 263 265 266 265 263 254 256 258 255 252 255 257 259 259 255 258 262 259 251 243 241 240 241 241 241 240 241 239 241 240 266 267 264 261 262 258 258 260 261 261 268 261 255 244 235 236 247 266 286 307 325 345 356 17 43 54 57 58 60 62 64 67 66 64 63 64 62 61 62
314 315 314 317 314 303 288 294 299 294 290 291 277 266 266 265 265 270 270 274 274 269 270 268 264 260 256 253 253 255 254 252 255 257 251 246 244 242 240 242 246 247 245 243 240 242 242 262 263 263 259 259 257 255 255 256 254 256 256 250 240 231 230 233 244 262 292 322 350 11 35 56 65 65 62 60 64 65 64 62 62 62 62 61 58
323 321 318 322 323 320 310 310 309 301 298 302 290 267 261 264 270 270 269 271 267 265 268 269 268 267 260 255 252 251 250 253 255 255 258 252 247 247 247 247 246 247 247 245 244 241 242 242 249 245 248 263 258 255 255 253 253 252 250 249 244 237 226 231 235 241 247 260 278 326 25 47 61 70 66 59 59 62 62 63 62 61 59 60 59
318 320 324 323 323 324 324 322 320 315 314 nan nan nan nan nan nan 283 279 274 274 269 267 267 267 264 262 259 256 251 247 248 249 251 254 257 254 252 251 251 251 249 249 248 245 245 244 244 242 248 242 260 270 260 258 254 252 251 252 251 248 236 226 225 236 241 239 242 245 276 15 48 54 62 70 65 56 52 55 59 61 62 61 60 59
322 319 320 321 320 320 322 321 317 314 nan nan nan nan 306 307 302 298 298 288 280 280 276 268 263 261 264 262 258 258 255 257 258 257 256 257 259 258 255 252 251 252 249 247 247 247 246 244 244 243 244 242 259 267 262 258 254 252 251 251 250 245 235 228 232 235 236 239 249 271 26 61 55 53 59 63 58 49 46 49 53 54 53 55 55
321 319 318 317 314 313 315 316 314 314 nan nan nan nan nan nan 300 294 295 297 290 285 282 275 265 261 263 263 262 260 258 257 257 258 256 256 257 258 258 257 255 252 251 250 249 247 246 246 245 244 245 246 248 251 251 253 254 258 254 251 249 249 245 240 235 235 232 230 234 247 256 287 51 56 53 56 54 48 41 40 40 40 41 43 45
316 315 317 318 318 317 316 317 319 317 315 317 316 315 308 305 303 297 292 298 296 285 285 283 263 260 260 259 257 252 257 258 252 248 253 257 255 255 258 258 257 253 250 251 250 250 248 246 247 245 244 244 245 248 251 249 248 258 261 252 247 246 249 250 246 243 241 231 223 222 244 276 343 15 49 52 52 49 42 38 39 37 35 36 37
316 316 315 318 320 321 317 316 316 315 315 314 315 313 309 306 305 308 306 303 302 294 291 288 271 263 257 260 257 254 248 258 258 254 251 252 253 255 254 252 253 254 252 251 251 250 250 248 247 246 245 244 242 244 245 247 254 256 262 261 253 244 241 241 243 245 244 242 231 222 232 266 314 9 39 46 51 51 44 39 39 38 36 34 34
317 319 321 323 322 318 315 314 314 313 310 311 311 311 309 308 307 306 309 307 302 295 294 294 286 269 256 257 258 256 256 252 252 252 254 254 256 253 251 251 251 254 256 256 251 249 250 251 249 247 246 244 243 241 241 241 243 245 251 259 259 252 243 237 235 237 241 245 247 242 247 262 296 334 16 42 44 46 45 40 36 37 36 33 31
313 314 316 316 318 318 316 313 311 310 311 311 307 305 306 305 302 301 304 305 299 289 284 286 285 278 269 262 258 250 249 251 252 248 250 250 245 243 245 249 254 256 256 258 258 251 249 252 252 249 247 246 244 241 240 240 239 239 238 244 260 254 248 240 235 236 240 244 248 252 255 262 275 305 343 13 31 35 42 40 35 33 33 32 30
307 306 307 308 310 311 310 308 305 304 304 301 300 299 297 298 298 299 297 292 290 288 283 274 275 281 274 268 263 254 246 251 255 250 245 245 241 240 244 246 248 255 258 258 260 259 258 258 258 253 250 247 245 243 241 240 242 240 239 238 247 257 253 247 240 239 242 245 246 250 254 262 272 287 312 328 3 24 25 31 30 25 24 26 24
303 301 301 302 304 306 306 305 303 298 295 297 298 297 295 294 294 294 293 289 287 283 278 274 276 275 275 271 271 260 251 249 250 252 247 239 234 231 232 243 239 240 248 256 260 262 262 257 260 261 254 250 246 243 242 241 240 240 238 240 237 243 250 248 243 239 242 249 251 250 254 260 269 278 289 301 320 345 1 6 9 6 6 9 13
301 299 298 299 302 306 308 307 305 304 303 302 299 303 302 295 292 291 292 289 288 286 279 275 274 274 270 269 263 259 258 256 254 254 249 240 228 226 229 236 236 241 243 245 254 262 265 263 263 263 260 255 250 246 244 242 240 239 238 242 244 242 244 245 243 239 240 247 253 254 255 261 268 274 279 284 309 317 334 338 342 347 346 345 351
302 300 300 298 300 302 304 305 306 305 305 306 305 296 294 297 291 288 288 289 287 289 287 276 270 266 267 265 256 248 255 254 256 255 246 238 226 222 228 230 233 240 247 245 237 229 252 266 265 265 263 260 255 249 247 245 241 239 239 241 242 245 244 243 243 239 237 242 249 255 260 261 265 270 278 284 292 305 308 322 331 329 332 342 345
306 304 302 301 302 303 303 303 304 303 305 304 299 303 301 297 296 296 294 293 285 284 286 279 271 266 267 268 261 257 259 259 260 256 243 232 227 220 227 231 230 231 244 248 243 238 237 251 264 265 265 264 259 252 249 247 245 240 236 240 241 242 244 244 243 241 239 239 245 253 258 259 260 265 270 274 279 290 301 311 315 321 319 321 322
309 306 306 304 307 308 306 305 304 303 304 305 305 303 305 303 302 298 294 293 290 286 282 283 280 269 266 265 264 260 257 253 253 251 242 233 228 219 219 227 233 238 236 246 247 239 238 243 257 265 265 262 262 258 250 246 245 245 240 240 238 237 239 242 242 241 240 241 244 249 256 258 258 260 262 265 270 279 288 295 299 304 311 317 317
309 308 307 307 310 310 308 306 304 303 304 304 304 304 303 304 300 302 300 297 292 285 281 281 278 273 270 267 261 255 253 253 252 249 247 239 232 224 220 223 231 230 237 240 242 243 244 246 252 259 261 261 261 262 259 251 245 248 248 236 242 238 235 236 238 239 238 240 244 248 252 256 258 258 258 259 264 270 277 286 289 293 299 305 308
309 308 308 309 311 311 310 307 304 303 303 302 303 303 302 301 299 298 297 294 295 292 285 278 276 276 268 263 264 260 255 253 251 254 249 245 241 232 222 223 225 226 228 235 234 234 234 240 254 256 258 260 259 260 261 257 249 246 248 238 239 240 236 235 237 238 238 239 242 246 249 254 257 257 257 257 260 265 271 278 282 288 292 297 300
310 309 309 310 nan nan 310 307 302 300 301 301 301 301 301 300 301 299 296 293 292 289 281 275 274 273 265 256 251 258 256 252 249 249 250 249 245 236 223 221 225 226 226 228 235 236 235 240 246 255 257 258 258 256 260 259 250 245 241 239 233 238 240 237 236 237 238 239 241 245 248 252 255 257 259 259 260 264 269 274 278 281 286 289 293
310 310 309 312 314 315 nan nan 302 298 299 300 301 301 301 302 303 305 302 293 288 280 280 278 268 265 264 260 257 253 251 249 253 253 249 247 245 235 228 223 223 220 222 225 228 230 236 236 236 241 251 255 257 254 257 261 253 252 244 239 238 235 243 240 238 238 239 240 242 245 248 251 254 257 259 260 261 263 267 271 274 278 282 285 287
310 309 310 313 317 317 314 308 302 298 298 300 302 303 306 308 307 309 308 300 294 285 277 272 269 265 264 261 256 249 244 245 249 251 246 244 242 233 226 221 220 219 221 226 225 221 231 239 233 236 245 253 253 254 254 257 255 251 240 240 238 237 242 245 241 239 239 240 241 245 248 251 252 255 257 259 260 262 265 269 273 277 280 283 286
309 308 310 314 317 319 316 309 303 299 298 300 302 305 311 312 312 308 303 298 297 292 282 272 264 259 258 259 259 253 248 245 247 253 250 245 242 237 228 226 223 220 230 232 223 221 224 237 235 235 245 254 252 254 254 253 252 248 237 235 238 239 239 249 244 240 238 239 242 246 250 251 252 253 254 256 258 261 265 270 274 278 280 283 285
311 309 310 313 317 317 315 310 305 301 301 301 301 303 308 311 311 307 298 293 289 288 281 273 267 262 259 254 248 250 253 248 245 242 247 242 234 237 236 232 224 227 235 240 220 216 221 227 234 238 233 245 248 251 253 252 251 249 240 236 237 239 238 246 245 241 239 241 244 248 250 252 251 252 252 254 257 261 264 267 272 275 279 281 283
310 310 311 314 316 317 314 310 308 306 304 302 300 302 306 311 308 306 298 289 283 280 279 275 268 261 252 249 252 249 245 247 247 245 244 241 233 236 240 234 230 235 244 240 230 214 228 227 223 226 241 243 247 241 249 250 252 251 239 238 238 239 242 239 245 245 243 245 248 250 253 254 253 252 252 253 256 259 261 264 268 273 276 279 281
311 311 314 316 319 318 316 314 311 309 306 305 302 303 307 307 308 307 300 286 279 276 276 273 269 261 249 243 244 247 247 248 248 246 248 245 239 236 237 235 235 240 244 241 230 218 223 231 230 229 226 230 231 242 243 248 252 248 240 240 241 240 240 239 241 246 246 249 250 253 255 255 256 255 254 254 255 256 259 262 266 270 274 276 279
312 313 315 317 318 318 318 317 315 312 308 306 304 303 304 304 304 302 295 290 283 276 271 268 267 266 255 245 237 nan 243 246 246 249 246 243 242 236 234 237 237 233 241 241 234 223 219 230 240 237 230 231 233 237 239 238 247 248 242 238 242 240 240 240 238 238 248 248 250 253 255 256 257 257 255 255 255 256 258 261 264 267 269 272 274
313 314 316 318 319 319 319 318 315 311 310 306 304 303 304 304 302 296 294 293 291 279 269 269 265 262 257 249 240 237 240 241 244 246 246 242 241 238 233 232 237 239 240 242 236 229 223 229 239 240 237 238 239 238 240 238 239 241 239 235 237 240 241 243 241 237 236 245 252 254 254 255 255 256 256 255 255 257 259 262 265 267 270 273 276
313 315 317 319 321 321 320 319 316 313 311 308 306 304 304 303 300 298 300 300 294 283 272 269 264 264 256 249 245 238 235 234 236 241 245 242 240 238 234 233 232 236 240 239 236 231 226 227 238 240 239 237 241 242 240 238 240 236 229 234 236 239 243 244 244 242 243 245 247 253 254 253 253 253 254 255 256 258 260 263 266 270 273 276 277
314 315 317 318 321 323 320 319 316 313 311 310 308 306 305 304 302 299 299 299 295 281 275 270 nan 270 nan nan nan nan 234 232 nan 235 241 240 237 234 233 233 232 237 241 238 236 236 231 228 232 237 237 235 238 244 245 241 241 240 235 235 231 231 241 245 246 246 248 247 248 253 255 254 254 253 254 255 257 259 262 265 269 272 275 277 277
nan nan nan 317 318 321 321 319 317 315 313 311 309 309 308 306 304 300 299 299 291 281 277 276 nan nan nan nan nan nan nan 230 225 nan 231 235 234 233 232 231 232 232 233 234 236 235 233 231 231 233 237 237 239 243 245 243 238 238 238 238 235 233 233 240 247 248 244 242 243 241 246 250 255 258 257 256 258 259 261 264 268 270 272 272 272
nan nan nan 316 317 318 319 318 317 315 314 312 311 312 311 308 304 303 302 300 293 288 286 nan nan nan nan nan nan nan nan nan nan nan 224 231 236 230 229 230 232 230 233 235 235 235 234 232 232 233 232 235 239 240 243 242 239 236 234 238 240 239 235 237 245 249 248 243 237 244 248 250 257 257 256 257 260 261 261 264 265 266 266 266 265
nan nan nan 314 313 314 315 316 316 315 313 313 312 311 310 307 304 303 303 300 296 294 287 nan nan nan nan nan nan nan nan nan nan nan 217 224 232 227 226 231 231 230 233 234 233 233 233 232 231 233 233 232 236 239 238 239 241 239 239 239 238 238 238 233 236 245 249 249 243 241 246 248 250 258 260 262 263 264 265 262 264 262 266 265 266
nan nan nan 311 311 313 313 313 315 314 312 311 311 308 306 305 302 303 305 305 300 295 290 nan nan nan nan nan nan nan nan 211 nan nan nan nan 219 219 225 226 227 232 235 232 233 232 232 232 231 232 232 230 233 238 241 243 243 240 241 238 232 231 235 234 235 240 246 246 244 243 244 249 247 248 251 252 254 263 260 262 255 264 264 264 266
nan nan 310 309 311 311 310 310 313 310 310 310 306 305 307 304 301 305 308 308 307 298 290 nan nan nan nan nan nan nan nan nan nan 209 nan nan nan nan 214 221 227 231 230 235 236 234 232 230 229 230 230 229 232 236 239 242 241 236 234 239 234 233 231 231 233 234 240 244 245 241 240 242 239 239 246 248 249 257 249 253 247 250 264 271 270
nan 310 311 310 308 307 307 308 307 307 307 308 308 310 311 314 310 307 311 313 311 305 295 nan nan nan nan nan nan nan nan nan nan nan nan nan nan nan nan nan nan nan 233 234 234 233 233 231 230 231 232 230 230 234 235 237 240 237 233 237 239 239 238 235 234 229 235 241 240 238 238 239 237 239 243 247 247 247 245 242 255 261 265 276 277
nan nan 309 309 309 307 307 306 305 305 306 307 310 310 312 313 313 313 317 317 316 312 302 289 nan nan nan nan nan nan nan nan nan nan nan nan nan nan nan nan nan nan nan 237 234 233 236 232 229 230 230 232 234 234 233 nan 238 239 237 235 240 241 236 237 235 235 235 237 238 236 236 239 237 244 248 247 244 243 240 244 257 261 265 271 276
nan 310 310 310 308 307 307 307 305 304 303 304 310 309 312 317 316 320 322 321 321 315 304 296 284 nan 278 269 nan nan nan nan nan nan nan nan nan nan nan nan nan nan nan nan nan 236 nan 234 232 231 232 231 233 233 232 233 236 236 240 240 244 240 237 234 234 230 237 241 238 232 230 245 247 245 244 244 242 240 242 251 257 261 263 265 267
nan 312 311 310 310 309 309 309 308 304 302 296 308 309 315 318 318 325 325 325 325 319 308 297 287 285 293 275 250 nan nan nan nan nan nan nan nan nan nan nan nan nan nan nan 250 255 nan nan nan nan nan 234 nan 232 232 234 236 237 242 239 241 240 235 232 234 230 231 241 242 239 236 236 240 237 237 239 239 240 236 250 263 260 260 262 266
nan 312 312 311 310 310 309 309 308 305 299 305 315 315 316 317 322 326 327 327 327 323 315 304 295 304 312 297 262 242 nan nan nan nan nan nan nan nan nan nan nan nan nan 242 nan 250 nan nan nan 233 231 232 nan nan 233 nan 238 240 242 239 238 238 235 229 227 229 227 232 235 233 227 233 238 233 230 234 238 239 237 250 259 258 257 261 266
311 312 313 312 311 312 313 314 314 310 301 314 320 319 317 321 323 322 324 326 331 329 317 309 306 316 327 312 267 248 241 nan nan nan nan nan nan nan nan nan nan nan nan nan nan nan 250 246 238 nan nan nan nan nan 230 231 234 237 241 241 241 237 233 226 224 233 232 234 226 231 232 233 232 229 229 235 237 237 239 235 258 260 260 262 267
nan nan 309 nan 303 297 293 296 301 309 309 315 321 319 319 323 320 318 320 324 328 331 322 313 313 327 338 329 275 243 239 234 224 nan nan nan nan nan nan nan nan nan nan nan nan nan nan nan nan nan nan nan nan nan nan nan 227 233 239 241 242 242 234 227 223 224 227 234 232 233 232 228 234 236 233 238 239 239 240 235 244 253 260 261 264
313 309 302 nan nan 304 307 301 300 304 304 306 318 319 322 326 324 319 318 322 327 329 325 321 319 326 347 11 332 246 230 228 221 216 nan nan nan nan nan nan nan nan nan nan nan nan nan nan nan nan nan nan nan nan nan nan nan nan 238 238 241 239 233 228 224 225 224 223 228 241 227 nan 233 237 238 239 240 241 240 240 247 249 254 257 nan
304 298 296 298 296 296 290 285 289 297 305 305 315 319 323 327 323 320 321 319 323 325 324 324 323 325 334 347 4 280 235 222 214 214 nan nan nan nan nan nan nan nan nan nan nan nan nan nan nan nan nan nan nan nan nan nan nan nan 244 nan 237 236 nan nan 221 223 220 222 218 234 228 234 238 240 243 244 243 244 244 246 252 253 255 258 nan